Other Surface Observations
Issued by NWS Upton, NY

Current Version | Previous Version | Text Only | Print | Product List | Glossary Off
Versions: 1 2 3 4 5 6 7 8 9 10 11 12 13 14 15 16 17 18 19 20 21 22 23 24 25 26 27 28 29 30 31 32 33 34 35 36 37 38 39 40 41 42 43 44 45 46 47 48 49 50

000
SXUS51 KOKX 252057
OSOOKX
New York City Metropolitan Area Weather Roundup
National Weather Service New York NY
500 PM EDT WED APR 25 2018

CITY           SKY/WX    TMP DP  RH WIND       PRES   REMARKS
Central Park   LGT RAIN  58  57  97 NE6       29.71F FOG
LaGuardia Arpt FOG       54  52  93 NE10      29.69F VSB 1
Kennedy Intl   FOG       54  54 100 E6        29.70F VSB 1/2
Newark Liberty FOG       56  56 100 E6        29.68F VSB 3/4
Teterboro Arpt LGT RAIN  58  57  97 E7        29.68S FOG
Bronx Bot Gard   N/A     55  54  94 NE8       29.70S
Bronx Lehman C   N/A     55  55 100 E10         N/A
Queens College   N/A     57  55  94 SE6         N/A
Breezy Point     N/A     52 N/A N/A E5          N/A
Brooklyn Coll    N/A     54  54 100 E7          N/A
Staten Island    N/A     55  54  94 E3          N/A

>>>>>>>>>>>>>>>>>>>>>>>>>>>>>>>>> KEY <<<<<<<<<<<<<<<<<<<<<<<<<<<<<<<
> SKY/WX - Sky Condition/Present    : R : WCI - Wind Chill Index    <
>          Weather                  : E : VSB - Visibility in Miles <
> TMP    - Temperature in Deg F     : M : HX  - Heat Index          <
> DP     - Dew Point Temperature    : A : TC  - Temperature in      <
> RH     - Relative Humidity        : R :       Celsius             <
> WIND   - Direction/Speed (mph)    : K : VRB - Variable Wind Dir   <
> PRES   - Pressure (in Hg)         : S :                           <
>>>>>>>>>>>>>>>>>>>>>>>>>>>>>>>>> KEY <<<<<<<<<<<<<<<<<<<<<<<<<<<<<<<




USA.gov is the U.S. government's official web portal to all federal, state and local government web resources and services.